Skip Page Navigation
NASA JPL Caltech
NASA Logo - Jet Propulsion Laboratory + View the NASA Portal
+ Center for Near-Earth Object Studies
JPL Home Earth Solar System Stars & Galaxies Technology
JPL Solar System Dynamics
BODIES ORBITS EPHEMERIDES TOOLS PHYSICAL DATA DISCOVERY FAQ SITE MAP
JPL Small-Body Database Browser
Search: [ help ]  
134166 (2005 BL19)
Classification: Main-belt Asteroid          SPK-ID: 2134166
Ephemeris | Orbit Diagram | Orbital Elements | Mission Design | Physical Parameters | Discovery Circumstances | Close-Approach Data ]

[ show orbit diagram ]
Orbital Elements at Epoch 2459200.5 (2020-Dec-17.0) TDB
Reference: JPL 22 (heliocentric ecliptic J2000)
 Element Value Uncertainty (1-sigma)   Units 
e .06929772889830389 4.1292e-08  
a 2.962929287770527 2.7482e-08 au
q 2.757605017241761 1.2514e-07 au
i 11.05807986684113 4.721e-06 deg
node 88.96545640234821 3.188e-05 deg
peri 27.75363032954923 5.6788e-05 deg
M 48.0177111942313 4.6658e-05 deg
tp 2458952.026938186604
(2020-Apr-12.52693819)
0.00024056 TDB
period 1862.860599310883
5.10
2.5918e-05
7.096e-08
d
yr
n .193251175172835 2.6887e-09 deg/d
Q 3.168253558299294 2.9387e-08 au
  Orbit Determination Parameters
   # obs. used (total)      446  
   data-arc span      6835 days (18.71 yr)  
   first obs. used      2002-06-20  
   last obs. used      2021-03-07  
   planetary ephem.      DE441  
   SB-pert. ephem.      SB441-N16  
   condition code      0  
   norm. resid. RMS      .58916  
   source      ORB  
   producer      Otto Matic  
   solution date      2021-Apr-13 18:07:11  

Additional Information
 Earth MOID = 1.77901 au 
 Jupiter MOID = 1.97178 au 
 T_jup = 3.234 
[ show covariance matrix ]

Ephemeris | Orbit Diagram | Orbital Elements | Mission Design | Physical Parameters | Discovery Circumstances | Close-Approach Data ]

Physical Parameter Table
Parameter Symbol Value Units Sigma Reference Notes
absolute magnitude H 15.27   n/a E2021B55  
diameter diameter 3.111 km 0.439 urn:nasa:pds:neowise_diameters_albedos::2.0[mainbelt] (http://adsabs.harvard.edu/abs/2011ApJ...741...68M)  
geometric albedo albedo 0.166   0.071 urn:nasa:pds:neowise_diameters_albedos::2.0[mainbelt] (http://adsabs.harvard.edu/abs/2011ApJ...741...68M)  

134166 (2005 BL19)          Discovered 2005-Jan-16 by LINEAR at Socorro
Reference: 20060711/Numbers.arcLast Updated: 2006-07-17

[ show close-approach data ]
Alternate Designations
 2005 BL19 = 2002 NE49 
Ephemeris | Orbit Diagram | Orbital Elements | Mission Design | Physical Parameters | Discovery Circumstances | Close-Approach Data ]
ABOUT SSD CREDITS/AWARDS PRIVACY/COPYRIGHT GLOSSARY LINKS
FirstGov 2021-Apr-16 00:22 UT
(server date/time)  
NASA Home Page
Site Manager:   Ryan S. Park
Webmaster  Alan B. Chamberlin